カタログに戻る

SKYKRAFT-1A

運用中科学SSO
NORAD 55054·PAYLOAD·🇦🇺 Australia

打ち上げ Jan 3, 2023 から Cape Canaveral Space Force Station

Loading…

次のパス (今後24時間)

TLE

最新Source: Space-Track

元期: Sep 14, 2026, 15:04 UTC

1 55054U 23001AX  26257.62794940  .00004394  00000-0  15359-3 0  9994
2 55054  97.3115 313.6191 0009774 164.3938 195.7607 15.30030123205394

AllMySatでSKYKRAFT-1Aをリアルタイム追跡

Download on the App Store